Year,Month,Day,Hour,Minute,Value (Times are PST for temperature in C)
2012,11,29,00,00,6.10
2012,11,29,00,01,6.10
2012,11,29,00,02,6.10
2012,11,29,00,03,6.00
2012,11,29,00,04,6.00
2012,11,29,00,05,6.00
2012,11,29,00,06,6.00
2012,11,29,00,07,6.00
2012,11,29,00,08,6.00
2012,11,29,00,09,6.00
2012,11,29,00,10,6.00
2012,11,29,00,11,6.00
2012,11,29,00,12,5.90
2012,11,29,00,13,6.00
2012,11,29,00,14,6.00
2012,11,29,00,15,6.00
2012,11,29,00,16,6.00
2012,11,29,00,17,6.00
2012,11,29,00,18,6.00
2012,11,29,00,19,6.00
2012,11,29,00,20,6.00
2012,11,29,00,21,6.00
2012,11,29,00,22,6.00
2012,11,29,00,23,6.10
2012,11,29,00,24,6.10
2012,11,29,00,25,6.10
2012,11,29,00,26,6.10
2012,11,29,00,27,6.10
2012,11,29,00,28,6.10
2012,11,29,00,29,6.10
2012,11,29,00,30,6.10
2012,11,29,00,31,6.10
2012,11,29,00,32,6.10
2012,11,29,00,33,6.10
2012,11,29,00,34,6.10
2012,11,29,00,35,6.10
2012,11,29,00,36,6.10
2012,11,29,00,37,6.10
2012,11,29,00,38,6.10
2012,11,29,00,39,6.10
2012,11,29,00,40,6.10
2012,11,29,00,41,6.10
2012,11,29,00,42,6.10
2012,11,29,00,43,6.10
2012,11,29,00,44,6.10
2012,11,29,00,45,6.10
2012,11,29,00,46,6.10
2012,11,29,00,47,6.10
2012,11,29,00,48,6.10
2012,11,29,00,49,6.10
2012,11,29,00,50,6.10
2012,11,29,00,51,6.10
2012,11,29,00,52,6.10
2012,11,29,00,53,6.10
2012,11,29,00,54,6.10
2012,11,29,00,55,6.10
2012,11,29,00,56,6.10
2012,11,29,00,57,6.10
2012,11,29,00,58,6.10
2012,11,29,00,59,6.10
2012,11,29,01,00,6.20
2012,11,29,01,01,6.20
2012,11,29,01,02,6.20
2012,11,29,01,03,6.20
2012,11,29,01,04,6.20
2012,11,29,01,05,6.20
2012,11,29,01,06,6.20
2012,11,29,01,07,6.20
2012,11,29,01,08,6.20
2012,11,29,01,09,6.10
2012,11,29,01,10,6.10
2012,11,29,01,11,6.10
2012,11,29,01,12,6.10
2012,11,29,01,13,6.00
2012,11,29,01,14,6.00
2012,11,29,01,15,5.90
2012,11,29,01,16,6.00
2012,11,29,01,17,6.00
2012,11,29,01,18,6.10
2012,11,29,01,19,6.20
2012,11,29,01,20,6.20
2012,11,29,01,21,6.20
2012,11,29,01,22,6.20
2012,11,29,01,23,6.20
2012,11,29,01,24,6.20
2012,11,29,01,25,6.20
2012,11,29,01,26,6.20
2012,11,29,01,27,6.20
2012,11,29,01,28,6.20
2012,11,29,01,29,6.20
2012,11,29,01,30,6.20
2012,11,29,01,31,6.20
2012,11,29,01,32,6.10
2012,11,29,01,33,6.10
2012,11,29,01,34,6.10
2012,11,29,01,35,6.10
2012,11,29,01,36,6.00
2012,11,29,01,37,6.00
2012,11,29,01,38,5.90
2012,11,29,01,39,5.90
2012,11,29,01,40,5.90
2012,11,29,01,41,5.90
2012,11,29,01,42,5.90
2012,11,29,01,43,6.00
2012,11,29,01,44,6.00
2012,11,29,01,45,6.10
2012,11,29,01,46,6.10
2012,11,29,01,47,6.10
2012,11,29,01,48,6.20
2012,11,29,01,49,6.20
2012,11,29,01,50,6.20
2012,11,29,01,51,6.20
2012,11,29,01,52,6.10
2012,11,29,01,53,6.10
2012,11,29,01,54,6.10
2012,11,29,01,55,6.10
2012,11,29,01,56,6.10
2012,11,29,01,57,6.10
2012,11,29,01,58,6.10
2012,11,29,01,59,6.10
2012,11,29,02,00,6.10
2012,11,29,02,01,6.20
2012,11,29,02,02,6.20
2012,11,29,02,03,6.20
2012,11,29,02,04,6.20
2012,11,29,02,05,6.20
2012,11,29,02,06,6.20
2012,11,29,02,07,6.20
2012,11,29,02,08,6.20
2012,11,29,02,09,6.20
2012,11,29,02,10,6.20
2012,11,29,02,11,6.20
2012,11,29,02,12,6.20
2012,11,29,02,13,6.20
2012,11,29,02,14,6.20
2012,11,29,02,15,6.20
2012,11,29,02,16,6.20
2012,11,29,02,17,6.20
2012,11,29,02,18,6.20
2012,11,29,02,19,6.10
2012,11,29,02,20,6.10
2012,11,29,02,21,6.10
2012,11,29,02,22,6.10
2012,11,29,02,23,6.10
2012,11,29,02,24,6.10
2012,11,29,02,25,6.10
2012,11,29,02,26,6.10
2012,11,29,02,27,6.10
2012,11,29,02,28,6.10
2012,11,29,02,29,6.10
2012,11,29,02,30,6.10
2012,11,29,02,31,6.10
2012,11,29,02,32,6.10
2012,11,29,02,33,6.10
2012,11,29,02,34,6.10
2012,11,29,02,35,6.10
2012,11,29,02,36,6.10
2012,11,29,02,37,6.10
2012,11,29,02,38,6.10
2012,11,29,02,39,6.10
2012,11,29,02,40,6.20
2012,11,29,02,41,6.20
2012,11,29,02,42,6.20
2012,11,29,02,43,6.20
2012,11,29,02,44,6.20
2012,11,29,02,45,6.20
2012,11,29,02,46,6.20
2012,11,29,02,47,6.20
2012,11,29,02,48,6.20
2012,11,29,02,49,6.20
2012,11,29,02,50,6.20
2012,11,29,02,51,6.20
2012,11,29,02,52,6.20
2012,11,29,02,53,6.20
2012,11,29,02,54,6.20
2012,11,29,02,55,6.20
2012,11,29,02,56,6.20
2012,11,29,02,57,6.30
2012,11,29,02,58,6.30
2012,11,29,02,59,6.30
2012,11,29,03,00,6.30
2012,11,29,03,01,6.30
2012,11,29,03,02,6.30
2012,11,29,03,03,6.30
2012,11,29,03,04,6.30
2012,11,29,03,05,6.30
2012,11,29,03,06,6.30
2012,11,29,03,07,6.30
2012,11,29,03,08,6.30
2012,11,29,03,09,6.30
2012,11,29,03,10,6.30
2012,11,29,03,11,6.30
2012,11,29,03,12,6.30
2012,11,29,03,13,6.30
2012,11,29,03,14,6.30
2012,11,29,03,15,6.30
2012,11,29,03,16,6.30
2012,11,29,03,17,6.30
2012,11,29,03,18,6.30
2012,11,29,03,19,6.30
2012,11,29,03,20,6.30
2012,11,29,03,21,6.30
2012,11,29,03,22,6.40
2012,11,29,03,23,6.40
2012,11,29,03,24,6.40
2012,11,29,03,25,6.40
2012,11,29,03,26,6.40
2012,11,29,03,27,6.40
2012,11,29,03,28,6.40
2012,11,29,03,29,6.40
2012,11,29,03,30,6.40
2012,11,29,03,31,6.40
2012,11,29,03,32,6.40
2012,11,29,03,33,6.40
2012,11,29,03,34,6.40
2012,11,29,03,35,6.30
2012,11,29,03,36,6.30
2012,11,29,03,37,6.30
2012,11,29,03,38,6.30
2012,11,29,03,39,6.30
2012,11,29,03,40,6.20
2012,11,29,03,41,6.20
2012,11,29,03,42,6.20
2012,11,29,03,43,6.20
2012,11,29,03,44,6.20
2012,11,29,03,45,6.20
2012,11,29,03,46,6.20
2012,11,29,03,47,6.10
2012,11,29,03,48,6.10
2012,11,29,03,49,6.10
2012,11,29,03,50,6.00
2012,11,29,03,51,6.00
2012,11,29,03,52,6.00
2012,11,29,03,53,5.90
2012,11,29,03,54,5.90
2012,11,29,03,55,5.90
2012,11,29,03,56,5.90
2012,11,29,03,57,5.90
2012,11,29,03,58,5.90
2012,11,29,03,59,5.90
2012,11,29,04,00,6.00
2012,11,29,04,01,6.00
2012,11,29,04,02,6.00
2012,11,29,04,03,6.00
2012,11,29,04,04,6.10
2012,11,29,04,05,6.10
2012,11,29,04,06,6.10
2012,11,29,04,07,6.10
2012,11,29,04,08,6.10
2012,11,29,04,09,6.20
2012,11,29,04,10,6.20
2012,11,29,04,11,6.20
2012,11,29,04,12,6.30
2012,11,29,04,13,6.30
2012,11,29,04,14,6.30
2012,11,29,04,15,6.30
2012,11,29,04,16,6.30
2012,11,29,04,17,6.40
2012,11,29,04,18,6.40
2012,11,29,04,19,6.40
2012,11,29,04,20,6.40
2012,11,29,04,21,6.50
2012,11,29,04,22,6.50
2012,11,29,04,23,6.50
2012,11,29,04,24,6.50
2012,11,29,04,25,6.50
2012,11,29,04,26,6.50
2012,11,29,04,27,6.50
2012,11,29,04,28,6.50
2012,11,29,04,29,6.60
2012,11,29,04,30,6.60
2012,11,29,04,31,6.60
2012,11,29,04,32,6.60
2012,11,29,04,33,6.60
2012,11,29,04,34,6.60
2012,11,29,04,35,6.60
2012,11,29,04,36,6.60
2012,11,29,04,37,6.60
2012,11,29,04,38,6.60
2012,11,29,04,39,6.60
2012,11,29,04,40,6.60
2012,11,29,04,41,6.60
2012,11,29,04,42,6.60
2012,11,29,04,43,6.60
2012,11,29,04,44,6.60
2012,11,29,04,45,6.60
2012,11,29,04,46,6.60
2012,11,29,04,47,6.60
2012,11,29,04,48,6.60
2012,11,29,04,49,6.60
2012,11,29,04,50,6.60
2012,11,29,04,51,6.60
2012,11,29,04,52,6.60
2012,11,29,04,53,6.60
2012,11,29,04,54,6.60
2012,11,29,04,55,6.60
2012,11,29,04,56,6.50
2012,11,29,04,57,6.50
2012,11,29,04,58,6.50
2012,11,29,04,59,6.50
2012,11,29,05,00,6.40
2012,11,29,05,01,6.40
2012,11,29,05,02,6.40
2012,11,29,05,03,6.40
2012,11,29,05,04,6.40
2012,11,29,05,05,6.40
2012,11,29,05,06,6.30
2012,11,29,05,07,6.30
2012,11,29,05,08,6.30
2012,11,29,05,09,6.40
2012,11,29,05,10,6.40
2012,11,29,05,11,6.40
2012,11,29,05,12,6.40
2012,11,29,05,13,6.40
2012,11,29,05,14,6.40
2012,11,29,05,15,6.50
2012,11,29,05,16,6.50
2012,11,29,05,17,6.50
2012,11,29,05,18,6.60
2012,11,29,05,19,6.60
2012,11,29,05,20,6.60
2012,11,29,05,21,6.60
2012,11,29,05,22,6.60
2012,11,29,05,23,6.50
2012,11,29,05,24,6.50
2012,11,29,05,25,6.50
2012,11,29,05,26,6.50
2012,11,29,05,27,6.50
2012,11,29,05,28,6.50
2012,11,29,05,29,6.40
2012,11,29,05,30,6.40
2012,11,29,05,31,6.40
2012,11,29,05,32,6.40
2012,11,29,05,33,6.30
2012,11,29,05,34,6.30
2012,11,29,05,35,6.30
2012,11,29,05,36,6.30
2012,11,29,05,37,6.30
2012,11,29,05,38,6.40
2012,11,29,05,39,6.40
2012,11,29,05,40,6.50
2012,11,29,05,41,6.50
2012,11,29,05,42,6.60
2012,11,29,05,43,6.60
2012,11,29,05,44,6.60
2012,11,29,05,45,6.60
2012,11,29,05,46,6.60
2012,11,29,05,47,6.60
2012,11,29,05,48,6.70
2012,11,29,05,49,6.80
2012,11,29,05,50,6.90
2012,11,29,05,51,6.90
2012,11,29,05,52,6.90
2012,11,29,05,53,6.90
2012,11,29,05,54,6.80
2012,11,29,05,55,6.90
2012,11,29,05,56,6.90
2012,11,29,05,57,6.90
2012,11,29,05,58,6.90
2012,11,29,05,59,6.90
2012,11,29,06,00,6.90
2012,11,29,06,01,6.90
2012,11,29,06,02,6.90
2012,11,29,06,03,6.90
2012,11,29,06,04,6.80
2012,11,29,06,05,6.80
2012,11,29,06,06,6.80
2012,11,29,06,07,6.80
2012,11,29,06,08,6.80
2012,11,29,06,09,6.80
2012,11,29,06,10,6.80
2012,11,29,06,11,6.80
2012,11,29,06,12,6.80
2012,11,29,06,13,6.80
2012,11,29,06,14,6.90
2012,11,29,06,15,6.90
2012,11,29,06,16,6.90
2012,11,29,06,17,7.00
2012,11,29,06,18,7.00
2012,11,29,06,19,7.00
2012,11,29,06,20,7.00
2012,11,29,06,21,7.00
2012,11,29,06,22,7.00
2012,11,29,06,23,7.00
2012,11,29,06,24,7.00
2012,11,29,06,25,7.00
2012,11,29,06,26,7.10
2012,11,29,06,27,7.10
2012,11,29,06,28,7.20
2012,11,29,06,29,7.20
2012,11,29,06,30,7.20
2012,11,29,06,31,7.30
2012,11,29,06,32,7.30
2012,11,29,06,33,7.30
2012,11,29,06,34,7.30
2012,11,29,06,35,7.40
2012,11,29,06,36,7.40
2012,11,29,06,37,7.40
2012,11,29,06,38,7.40
2012,11,29,06,39,7.40
2012,11,29,06,40,7.40
2012,11,29,06,41,7.40
2012,11,29,06,42,7.40
2012,11,29,06,43,7.40
2012,11,29,06,44,7.40
2012,11,29,06,45,7.40
2012,11,29,06,46,7.40
2012,11,29,06,47,7.50
2012,11,29,06,48,7.60
2012,11,29,06,49,7.70
2012,11,29,06,50,7.80
2012,11,29,06,51,7.70
2012,11,29,06,52,7.70
2012,11,29,06,53,7.70
2012,11,29,06,54,7.60
2012,11,29,06,55,7.60
2012,11,29,06,56,7.60
2012,11,29,06,57,7.60
2012,11,29,06,58,7.60
2012,11,29,06,59,7.60
2012,11,29,07,00,7.60
2012,11,29,07,01,7.60
2012,11,29,07,02,7.60
2012,11,29,07,03,7.60
2012,11,29,07,04,7.60
2012,11,29,07,05,7.50
2012,11,29,07,06,7.50
2012,11,29,07,07,7.50
2012,11,29,07,08,7.50
2012,11,29,07,09,7.50
2012,11,29,07,10,7.50
2012,11,29,07,11,7.50
2012,11,29,07,12,7.40
2012,11,29,07,13,7.40
2012,11,29,07,14,7.40
2012,11,29,07,15,7.40
2012,11,29,07,16,7.40
2012,11,29,07,17,7.50
2012,11,29,07,18,7.50
2012,11,29,07,19,7.60
2012,11,29,07,20,7.60
2012,11,29,07,21,7.60
2012,11,29,07,22,7.60
2012,11,29,07,23,7.70
2012,11,29,07,24,7.70
2012,11,29,07,25,7.70
2012,11,29,07,26,7.80
2012,11,29,07,27,7.80
2012,11,29,07,28,7.90
2012,11,29,07,29,8.10
2012,11,29,07,30,8.20
2012,11,29,07,31,8.40
2012,11,29,07,32,8.60
2012,11,29,07,33,8.80
2012,11,29,07,34,9.00
2012,11,29,07,35,9.10
2012,11,29,07,36,9.20
2012,11,29,07,37,9.30
2012,11,29,07,38,9.40
2012,11,29,07,39,9.40
2012,11,29,07,40,9.50
2012,11,29,07,41,9.60
2012,11,29,07,42,9.60
2012,11,29,07,43,9.60
2012,11,29,07,44,9.70
2012,11,29,07,45,9.80
2012,11,29,07,46,9.80
2012,11,29,07,47,9.90
2012,11,29,07,48,10.00
2012,11,29,07,49,10.00
2012,11,29,07,50,10.10
2012,11,29,07,51,10.10
2012,11,29,07,52,10.10
2012,11,29,07,53,10.20
2012,11,29,07,54,10.20
2012,11,29,07,55,10.20
2012,11,29,07,56,10.20
2012,11,29,07,57,10.20
2012,11,29,07,58,10.20
2012,11,29,07,59,10.20
2012,11,29,08,00,10.20
2012,11,29,08,01,10.20
2012,11,29,08,02,10.20
2012,11,29,08,03,10.20
2012,11,29,08,04,10.20
2012,11,29,08,05,10.20
2012,11,29,08,06,10.20
2012,11,29,08,07,10.20
2012,11,29,08,08,10.10
2012,11,29,08,09,10.10
2012,11,29,08,10,10.10
2012,11,29,08,11,10.10
2012,11,29,08,12,10.10
2012,11,29,08,13,10.10
2012,11,29,08,14,10.10
2012,11,29,08,15,10.00
2012,11,29,08,16,10.00
2012,11,29,08,17,9.90
2012,11,29,08,18,9.90
2012,11,29,08,19,9.90
2012,11,29,08,20,9.90
2012,11,29,08,21,10.00
2012,11,29,08,22,10.00
2012,11,29,08,23,10.00
2012,11,29,08,24,10.00
2012,11,29,08,25,10.00
2012,11,29,08,26,10.00
2012,11,29,08,27,9.90
2012,11,29,08,28,9.90
2012,11,29,08,29,9.90
2012,11,29,08,30,9.90
2012,11,29,08,31,9.90
2012,11,29,08,32,9.90
2012,11,29,08,33,9.90
2012,11,29,08,34,9.90
2012,11,29,08,35,9.90
2012,11,29,08,36,10.00
2012,11,29,08,37,10.00
2012,11,29,08,38,10.00
2012,11,29,08,39,10.10
2012,11,29,08,40,10.10
2012,11,29,08,41,10.10
2012,11,29,08,42,10.10
2012,11,29,08,43,10.10
2012,11,29,08,44,10.20
2012,11,29,08,45,10.20
2012,11,29,08,46,10.20
2012,11,29,08,47,10.20
2012,11,29,08,48,10.20
2012,11,29,08,49,10.20
2012,11,29,08,50,10.20
2012,11,29,08,51,10.20
2012,11,29,08,52,10.20
2012,11,29,08,53,10.20
2012,11,29,08,54,10.20
2012,11,29,08,55,10.20
2012,11,29,08,56,10.20
2012,11,29,08,57,10.30
2012,11,29,08,58,10.30
2012,11,29,08,59,10.30
2012,11,29,09,00,10.30
2012,11,29,09,01,10.30
2012,11,29,09,02,10.30
2012,11,29,09,03,10.30
2012,11,29,09,04,10.30
2012,11,29,09,05,10.30
2012,11,29,09,06,10.30
2012,11,29,09,07,10.30
2012,11,29,09,08,10.30
2012,11,29,09,09,10.30
2012,11,29,09,10,10.30
2012,11,29,09,11,10.30
2012,11,29,09,12,10.30
2012,11,29,09,13,10.30
2012,11,29,09,14,10.30
2012,11,29,09,15,10.30
2012,11,29,09,16,10.30
2012,11,29,09,17,10.30
2012,11,29,09,18,10.30
2012,11,29,09,19,10.30
2012,11,29,09,20,10.30
2012,11,29,09,21,10.40
2012,11,29,09,22,10.40
2012,11,29,09,23,10.40
2012,11,29,09,24,10.50
2012,11,29,09,25,10.50
2012,11,29,09,26,10.60
2012,11,29,09,27,10.60
2012,11,29,09,28,10.70
2012,11,29,09,29,10.80
2012,11,29,09,30,10.80
2012,11,29,09,31,10.90
2012,11,29,09,32,10.90
2012,11,29,09,33,11.00
2012,11,29,09,34,11.00
2012,11,29,09,35,11.10
2012,11,29,09,36,11.10
2012,11,29,09,37,11.20
2012,11,29,09,38,11.30
2012,11,29,09,39,11.40
2012,11,29,09,40,11.50
2012,11,29,09,41,11.60
2012,11,29,09,42,11.70
2012,11,29,09,43,11.70
2012,11,29,09,44,11.70
2012,11,29,09,45,11.70
2012,11,29,09,46,11.80
2012,11,29,09,47,11.80
2012,11,29,09,48,11.80
2012,11,29,09,49,11.80
2012,11,29,09,50,11.90
2012,11,29,09,51,11.90
2012,11,29,09,52,11.90
2012,11,29,09,53,11.90
2012,11,29,09,54,11.90
2012,11,29,09,55,11.90
2012,11,29,09,56,11.90
2012,11,29,09,57,11.90
2012,11,29,09,58,11.90
2012,11,29,09,59,11.90
2012,11,29,10,00,11.90
2012,11,29,10,01,11.80
2012,11,29,10,02,11.80
2012,11,29,10,03,11.70
2012,11,29,10,04,11.70
2012,11,29,10,05,11.70
2012,11,29,10,06,11.70
2012,11,29,10,07,11.70
2012,11,29,10,08,11.70
2012,11,29,10,09,11.70
2012,11,29,10,10,11.60
2012,11,29,10,11,11.50
2012,11,29,10,12,11.40
2012,11,29,10,13,11.30
2012,11,29,10,14,11.20
2012,11,29,10,15,11.20
2012,11,29,10,16,11.20
2012,11,29,10,17,11.20
2012,11,29,10,18,11.10
2012,11,29,10,19,11.10
2012,11,29,10,20,11.10
2012,11,29,10,21,11.10
2012,11,29,10,22,11.00
2012,11,29,10,23,11.00
2012,11,29,10,24,10.90
2012,11,29,10,25,10.90
2012,11,29,10,26,10.90
2012,11,29,10,27,10.90
2012,11,29,10,28,10.90
2012,11,29,10,29,10.90
2012,11,29,10,30,10.90
2012,11,29,10,31,10.90
2012,11,29,10,32,10.90
2012,11,29,10,33,10.90
2012,11,29,10,34,10.90
2012,11,29,10,35,10.90
2012,11,29,10,36,10.80
2012,11,29,10,37,10.80
2012,11,29,10,38,10.80
2012,11,29,10,39,10.80
2012,11,29,10,40,10.80
2012,11,29,10,41,10.80
2012,11,29,10,42,10.80
2012,11,29,10,43,10.80
2012,11,29,10,44,10.80
2012,11,29,10,45,10.80
2012,11,29,10,46,10.80
2012,11,29,10,47,10.90
2012,11,29,10,48,10.90
2012,11,29,10,49,10.90
2012,11,29,10,50,10.90
2012,11,29,10,51,10.90
2012,11,29,10,52,10.90
2012,11,29,10,53,10.90
2012,11,29,10,54,10.90
2012,11,29,10,55,11.00
2012,11,29,10,56,11.00
2012,11,29,10,57,11.00
2012,11,29,10,58,11.10
2012,11,29,10,59,11.10
2012,11,29,11,00,11.10
2012,11,29,11,01,11.10
2012,11,29,11,02,11.10
2012,11,29,11,03,11.20
2012,11,29,11,04,11.20
2012,11,29,11,05,11.20
2012,11,29,11,06,11.20
2012,11,29,11,07,11.20
2012,11,29,11,08,11.20
2012,11,29,11,09,11.20
2012,11,29,11,10,11.20
2012,11,29,11,11,11.20
2012,11,29,11,12,11.20
2012,11,29,11,13,11.20
2012,11,29,11,14,11.20
2012,11,29,11,15,11.20
2012,11,29,11,16,11.20
2012,11,29,11,17,11.20
2012,11,29,11,18,11.20
2012,11,29,11,19,11.20
2012,11,29,11,20,11.20
2012,11,29,11,21,11.20
2012,11,29,11,22,11.20
2012,11,29,11,23,11.20
2012,11,29,11,24,11.20
2012,11,29,11,25,11.20
2012,11,29,11,26,11.20
2012,11,29,11,27,11.20
2012,11,29,11,28,11.20
2012,11,29,11,29,11.20
2012,11,29,11,30,11.20
2012,11,29,11,31,11.20
2012,11,29,11,32,11.30
2012,11,29,11,33,11.30
2012,11,29,11,34,11.30
2012,11,29,11,35,11.30
2012,11,29,11,36,11.40
2012,11,29,11,37,11.40
2012,11,29,11,38,11.40
2012,11,29,11,39,11.40
2012,11,29,11,40,11.50
2012,11,29,11,41,11.50
2012,11,29,11,42,11.50
2012,11,29,11,43,11.50
2012,11,29,11,44,11.60
2012,11,29,11,45,11.60
2012,11,29,11,46,11.60
2012,11,29,11,47,11.70
2012,11,29,11,48,11.70
2012,11,29,11,49,11.80
2012,11,29,11,50,11.80
2012,11,29,11,51,11.80
2012,11,29,11,52,11.70
2012,11,29,11,53,11.70
2012,11,29,11,54,11.60
2012,11,29,11,55,11.60
2012,11,29,11,56,11.60
2012,11,29,11,57,11.60
2012,11,29,11,58,11.70
2012,11,29,11,59,11.70
2012,11,29,12,00,11.70
2012,11,29,12,01,11.70
2012,11,29,12,02,11.70
2012,11,29,12,03,11.70
2012,11,29,12,04,11.70
2012,11,29,12,05,11.80
2012,11,29,12,06,11.80
2012,11,29,12,07,11.80
2012,11,29,12,08,11.80
2012,11,29,12,09,11.90
2012,11,29,12,10,11.90
2012,11,29,12,11,12.00
2012,11,29,12,12,12.00
2012,11,29,12,13,12.20
2012,11,29,12,14,12.30
2012,11,29,12,15,12.30
2012,11,29,12,16,12.30
2012,11,29,12,17,12.30
2012,11,29,12,18,12.30
2012,11,29,12,19,12.30
2012,11,29,12,20,12.40
2012,11,29,12,21,12.40
2012,11,29,12,22,12.40
2012,11,29,12,23,12.50
2012,11,29,12,24,12.50
2012,11,29,12,25,12.50
2012,11,29,12,26,12.50
2012,11,29,12,27,12.50
2012,11,29,12,28,12.60
2012,11,29,12,29,12.60
2012,11,29,12,30,12.60
2012,11,29,12,31,12.70
2012,11,29,12,32,12.70
2012,11,29,12,33,12.70
2012,11,29,12,34,12.80
2012,11,29,12,35,12.80
2012,11,29,12,36,12.80
2012,11,29,12,37,12.70
2012,11,29,12,38,12.70
2012,11,29,12,39,12.70
2012,11,29,12,40,12.70
2012,11,29,12,41,12.70
2012,11,29,12,42,12.70
2012,11,29,12,43,12.70
2012,11,29,12,44,12.60
2012,11,29,12,45,12.60
2012,11,29,12,46,12.60
2012,11,29,12,47,12.60
2012,11,29,12,48,12.60
2012,11,29,12,49,12.60
2012,11,29,12,50,12.60
2012,11,29,12,51,12.60
2012,11,29,12,52,12.60
2012,11,29,12,53,12.60
2012,11,29,12,54,12.60
2012,11,29,12,55,12.60
2012,11,29,12,56,12.60
2012,11,29,12,57,12.60
2012,11,29,12,58,12.60
2012,11,29,12,59,12.70
2012,11,29,13,00,12.70
2012,11,29,13,01,12.70
2012,11,29,13,02,12.70
2012,11,29,13,03,12.70
2012,11,29,13,04,12.80
2012,11,29,13,05,12.80
2012,11,29,13,06,12.80
2012,11,29,13,07,12.80
2012,11,29,13,08,12.80
2012,11,29,13,09,12.80
2012,11,29,13,10,12.80
2012,11,29,13,11,12.80
2012,11,29,13,12,12.80
2012,11,29,13,13,12.80
2012,11,29,13,14,12.80
2012,11,29,13,15,12.80
2012,11,29,13,16,12.80
2012,11,29,13,17,12.80
2012,11,29,13,18,12.80
2012,11,29,13,19,12.80
2012,11,29,13,20,12.80
2012,11,29,13,21,12.80
2012,11,29,13,22,12.80
2012,11,29,13,23,12.80
2012,11,29,13,24,12.80
2012,11,29,13,25,12.80
2012,11,29,13,26,12.70
2012,11,29,13,27,12.70
2012,11,29,13,28,12.70
2012,11,29,13,29,12.70
2012,11,29,13,30,12.70
2012,11,29,13,31,12.60
2012,11,29,13,32,12.60
2012,11,29,13,33,12.50
2012,11,29,13,34,12.40
2012,11,29,13,35,12.30
2012,11,29,13,36,12.20
2012,11,29,13,37,12.10
2012,11,29,13,38,12.10
2012,11,29,13,39,12.10
2012,11,29,13,40,12.10
2012,11,29,13,41,12.10
2012,11,29,13,42,12.10
2012,11,29,13,43,12.10
2012,11,29,13,44,12.10
2012,11,29,13,45,12.10
2012,11,29,13,46,12.10
2012,11,29,13,47,12.10
2012,11,29,13,48,12.10
2012,11,29,13,49,12.10
2012,11,29,13,50,12.10
2012,11,29,13,51,12.00
2012,11,29,13,52,12.00
2012,11,29,13,53,11.90
2012,11,29,13,54,11.90
2012,11,29,13,55,11.80
2012,11,29,13,56,11.80
2012,11,29,13,57,11.80
2012,11,29,13,58,11.80
2012,11,29,13,59,11.80
2012,11,29,14,00,11.70
2012,11,29,14,01,11.70
2012,11,29,14,02,11.70
2012,11,29,14,03,11.70
2012,11,29,14,04,11.70
2012,11,29,14,05,11.70
2012,11,29,14,06,11.70
2012,11,29,14,07,11.60
2012,11,29,14,08,11.50
2012,11,29,14,09,11.50
2012,11,29,14,10,11.40
2012,11,29,14,11,11.40
2012,11,29,14,12,11.40
2012,11,29,14,13,11.30
2012,11,29,14,14,11.30
2012,11,29,14,15,11.30
2012,11,29,14,16,11.30
2012,11,29,14,17,11.30
2012,11,29,14,18,11.20
2012,11,29,14,19,11.20
2012,11,29,14,20,11.20
2012,11,29,14,21,11.20
2012,11,29,14,22,11.20
2012,11,29,14,23,11.20
2012,11,29,14,24,11.20
2012,11,29,14,25,11.10
2012,11,29,14,26,11.10
2012,11,29,14,27,11.10
2012,11,29,14,28,11.10
2012,11,29,14,29,11.10
2012,11,29,14,30,11.10
2012,11,29,14,31,11.00
2012,11,29,14,32,11.00
2012,11,29,14,33,11.00
2012,11,29,14,34,11.00
2012,11,29,14,35,10.90
2012,11,29,14,36,10.90
2012,11,29,14,37,10.80
2012,11,29,14,38,10.80
2012,11,29,14,39,10.80
2012,11,29,14,40,10.80
2012,11,29,14,41,10.80
2012,11,29,14,42,10.80
2012,11,29,14,43,10.80
2012,11,29,14,44,10.80
2012,11,29,14,45,10.80
2012,11,29,14,46,10.80
2012,11,29,14,47,10.80
2012,11,29,14,48,10.80
2012,11,29,14,49,10.80
2012,11,29,14,50,10.80
2012,11,29,14,51,10.80
2012,11,29,14,52,10.80
2012,11,29,14,53,10.80
2012,11,29,14,54,10.80
2012,11,29,14,55,10.70
2012,11,29,14,56,10.70
2012,11,29,14,57,10.70
2012,11,29,14,58,10.60
2012,11,29,14,59,10.60
2012,11,29,15,00,10.60
2012,11,29,15,01,10.60
2012,11,29,15,02,10.60
2012,11,29,15,03,10.60
2012,11,29,15,04,10.50
2012,11,29,15,05,10.50
2012,11,29,15,06,10.40
2012,11,29,15,07,10.40
2012,11,29,15,08,10.40
2012,11,29,15,09,10.40
2012,11,29,15,10,10.40
2012,11,29,15,11,10.40
2012,11,29,15,12,10.40
2012,11,29,15,13,10.40
2012,11,29,15,14,10.40
2012,11,29,15,15,10.30
2012,11,29,15,16,10.30
2012,11,29,15,17,10.30
2012,11,29,15,18,10.30
2012,11,29,15,19,10.30
2012,11,29,15,20,10.20
2012,11,29,15,21,10.20
2012,11,29,15,22,10.20
2012,11,29,15,23,10.20
2012,11,29,15,24,10.10
2012,11,29,15,25,10.10
2012,11,29,15,26,10.10
2012,11,29,15,27,10.10
2012,11,29,15,28,10.00
2012,11,29,15,29,10.00
2012,11,29,15,30,10.00
2012,11,29,15,31,9.90
2012,11,29,15,32,9.90
2012,11,29,15,33,9.90
2012,11,29,15,34,9.90
2012,11,29,15,35,9.80
2012,11,29,15,36,9.80
2012,11,29,15,37,9.80
2012,11,29,15,38,9.80
2012,11,29,15,39,9.80
2012,11,29,15,40,9.70
2012,11,29,15,41,9.70
2012,11,29,15,42,9.70
2012,11,29,15,43,9.70
2012,11,29,15,44,9.60
2012,11,29,15,45,9.60
2012,11,29,15,46,9.60
2012,11,29,15,47,9.60
2012,11,29,15,48,9.60
2012,11,29,15,49,9.50
2012,11,29,15,50,9.50
2012,11,29,15,51,9.50
2012,11,29,15,52,9.40
2012,11,29,15,53,9.40
2012,11,29,15,54,9.40
2012,11,29,15,55,9.40
2012,11,29,15,56,9.40
2012,11,29,15,57,9.40
2012,11,29,15,58,9.30
2012,11,29,15,59,9.30
2012,11,29,16,00,9.30
2012,11,29,16,01,9.30
2012,11,29,16,02,9.30
2012,11,29,16,03,9.30
2012,11,29,16,04,9.30
2012,11,29,16,05,9.30
2012,11,29,16,06,9.30
2012,11,29,16,07,9.20
2012,11,29,16,08,9.20
2012,11,29,16,09,9.20
2012,11,29,16,10,9.20
2012,11,29,16,11,9.20
2012,11,29,16,12,9.20
2012,11,29,16,13,9.20
2012,11,29,16,14,9.20
2012,11,29,16,15,9.20
2012,11,29,16,16,9.20
2012,11,29,16,17,9.10
2012,11,29,16,18,9.10
2012,11,29,16,19,9.10
2012,11,29,16,20,9.10
2012,11,29,16,21,9.10
2012,11,29,16,22,9.10
2012,11,29,16,23,9.10
2012,11,29,16,24,9.10
2012,11,29,16,25,9.10
2012,11,29,16,26,9.10
2012,11,29,16,27,9.10
2012,11,29,16,28,9.10
2012,11,29,16,29,9.00
2012,11,29,16,30,9.00
2012,11,29,16,31,9.00
2012,11,29,16,32,9.00
2012,11,29,16,33,9.00
2012,11,29,16,34,9.00
2012,11,29,16,35,9.00
2012,11,29,16,36,9.00
2012,11,29,16,37,8.90
2012,11,29,16,38,8.90
2012,11,29,16,39,8.90
2012,11,29,16,40,8.90
2012,11,29,16,41,8.90
2012,11,29,16,42,8.90
2012,11,29,16,43,8.90
2012,11,29,16,44,8.90
2012,11,29,16,45,8.90
2012,11,29,16,46,8.90
2012,11,29,16,47,8.90
2012,11,29,16,48,8.90
2012,11,29,16,49,8.90
2012,11,29,16,50,8.90
2012,11,29,16,51,8.90
2012,11,29,16,52,8.90
2012,11,29,16,53,8.90
2012,11,29,16,54,8.90
2012,11,29,16,55,8.90
2012,11,29,16,56,8.80
2012,11,29,16,57,8.80
2012,11,29,16,58,8.80
2012,11,29,16,59,8.90
2012,11,29,17,00,8.90
2012,11,29,17,01,8.90
2012,11,29,17,02,8.90
2012,11,29,17,03,8.90
2012,11,29,17,04,8.90
2012,11,29,17,05,8.80
2012,11,29,17,06,8.80
2012,11,29,17,07,8.80
2012,11,29,17,08,8.80
2012,11,29,17,09,8.80
2012,11,29,17,10,8.80
2012,11,29,17,11,8.80
2012,11,29,17,12,8.80
2012,11,29,17,13,8.80
2012,11,29,17,14,8.80
2012,11,29,17,15,8.80
2012,11,29,17,16,8.80
2012,11,29,17,17,8.80
2012,11,29,17,18,8.80
2012,11,29,17,19,8.80
2012,11,29,17,20,8.80
2012,11,29,17,21,8.80
2012,11,29,17,22,8.80
2012,11,29,17,23,8.80
2012,11,29,17,24,8.80
2012,11,29,17,25,8.80
2012,11,29,17,26,8.80
2012,11,29,17,27,8.80
2012,11,29,17,28,8.80
2012,11,29,17,29,8.80
2012,11,29,17,30,8.80
2012,11,29,17,31,8.80
2012,11,29,17,32,8.80
2012,11,29,17,33,8.80
2012,11,29,17,34,8.80
2012,11,29,17,35,8.80
2012,11,29,17,36,8.80
2012,11,29,17,37,8.80
2012,11,29,17,38,8.70
2012,11,29,17,39,8.70
2012,11,29,17,40,8.70
2012,11,29,17,41,8.70
2012,11,29,17,42,8.70
2012,11,29,17,43,8.70
2012,11,29,17,44,8.70
2012,11,29,17,45,8.70
2012,11,29,17,46,8.70